Language: 


Des rapports , des résumés tant et plus, au choix de chacun....


Données statistiques de la station
Quotidien Rapport Mai 10, 2017 Unités:  Anglais    Métrique   les deux
« Précédent Jour
Suivant Jour »
Quotidien Hebdomadaire Mensuel Annuel Actuel
  Haut: Bas: Moyen:
Température: 43 °F 32 °F 37.4 °F
Pt de rosée: 37.4 °F 35.6 °F 35.8 °F
Humidité: 89 % 0 % 65 %
Vitesse du vent: 4.9 mph 0 mph 0.4 mph
Rafales: 6.3 mph - -
Vent:- - ESE
Pression: 29.1 in 0 in -
Précipitation: 0 in    
Historical Graphs
 
 
Données statistiques pour Mai 10, 2017
Heure Température Point de rosée Pression Vent Vitesse du vent Refales Humidité Pluie (taux horaire)
00:00 43 °F 35.6 °F 29.1 in NE 2.5 mph 5.4 mph 74 % 0 in
00:05 43 °F 35.6 °F 29.1 in NE 3.6 mph 4.3 mph 75 % 0 in
00:10 42.8 °F 35.6 °F 29.1 in NNE 1.6 mph 4.5 mph 76 % 0 in
00:15 42.6 °F 37.4 °F 29.1 in NE 4.7 mph 4.9 mph 77 % 0 in
00:20 42.4 °F 37.4 °F 29.1 in NE 4 mph 4.9 mph 77 % 0 in
00:25 42.3 °F 35.6 °F 29.1 in NE 3.8 mph 4.9 mph 78 % 0 in
00:30 42.3 °F 35.6 °F 29.1 in NE 3.8 mph 4.7 mph 78 % 0 in
00:35 42.3 °F 35.6 °F 29.1 in North 3.1 mph 4.7 mph 78 % 0 in
00:40 42.1 °F 37.4 °F 28.9 in NE 3.6 mph 4.7 mph 79 % 0 in
00:45 42.1 °F 37.4 °F 28.9 in NNE 2.7 mph 4.7 mph 80 % 0 in
00:50 41.9 °F 37.4 °F 28.9 in NNE 2.7 mph 5.4 mph 81 % 0 in
00:55 41.7 °F 37.4 °F 29 in North 2 mph 5.4 mph 80 % 0 in
01:00 41.7 °F 37.4 °F 29 in North 3.4 mph 5.8 mph 82 % 0 in
01:05 41.9 °F 37.4 °F 29 in NNE 4.9 mph 6.3 mph 83 % 0 in
01:11 41.9 °F 37.4 °F 29 in NE 3.1 mph 6.3 mph 83 % 0 in
01:16 41.9 °F 37.4 °F 29 in NE 2.5 mph 6.3 mph 83 % 0 in
01:21 41.7 °F 37.4 °F 29 in NNE 3.1 mph 5.6 mph 84 % 0 in
01:26 41.7 °F 37.4 °F 29 in NNE 4 mph 6 mph 84 % 0 in
01:31 41.7 °F 37.4 °F 29 in NE 3.1 mph 6 mph 84 % 0 in
01:36 41.7 °F 37.4 °F 28.9 in NNE 2.9 mph 5.6 mph 84 % 0 in
01:41 41.7 °F 37.4 °F 28.9 in NNE 2.2 mph 5.6 mph 85 % 0 in
01:46 41.7 °F 37.4 °F 28.9 in Calm   5.6 mph 85 % 0 in
01:51 41.7 °F 37.4 °F 28.9 in NNW 2.7 mph 5.6 mph 84 % 0 in
01:56 41.5 °F 37.4 °F 28.9 in NE 3.1 mph 4.3 mph 85 % 0 in
02:01 41.5 °F 37.4 °F 28.9 in NE 1.1 mph 4.3 mph 85 % 0 in
02:06 41.5 °F 37.4 °F 28.8 in Calm   4.3 mph 85 % 0 in
02:11 41.4 °F 37.4 °F 28.8 in Calm   4.5 mph 85 % 0 in
02:16 41.2 °F 37.4 °F 28.8 in NE 4 mph 5.4 mph 85 % 0 in
02:21 41 °F 37.4 °F 28.7 in NE 2.7 mph 5.6 mph 86 % 0 in
02:26 40.8 °F 37.4 °F 28.7 in North 3.8 mph 5.8 mph 86 % 0 in
02:31 40.6 °F 37.4 °F 28.7 in NNE 1.3 mph 5.8 mph 86 % 0 in
02:36 40.5 °F 37.4 °F 28.8 in Calm   5.6 mph 86 % 0 in
02:41 40.5 °F 37.4 °F 28.8 in NNE 2.7 mph 4.9 mph 87 % 0 in
02:46 40.5 °F 37.4 °F 28.8 in Calm   4 mph 87 % 0 in
02:51 40.5 °F 37.4 °F 28.7 in NE 3.4 mph 4 mph 87 % 0 in
02:56 40.5 °F 37.4 °F 28.7 in Calm   4 mph 87 % 0 in
03:01 40.3 °F 37.4 °F 28.7 in North 0.9 mph 4 mph 86 % 0 in
03:06 40.1 °F 37.4 °F 28.7 in NE 2.7 mph 4.3 mph 86 % 0 in
03:11 40.1 °F 37.4 °F 28.7 in North 2.7 mph 4.3 mph 86 % 0 in
03:16 39.9 °F 35.6 °F 28.7 in Calm   4 mph 86 % 0 in
03:22 39.7 °F 35.6 °F 28.6 in Calm   3.6 mph 86 % 0 in
03:27 39.7 °F 37.4 °F 28.6 in Calm   3.4 mph 87 % 0 in
03:32 39.6 °F 37.4 °F 28.6 in Calm   3.6 mph 87 % 0 in
03:37 39.6 °F 37.4 °F 28.4 in NNE 1.6 mph 5.8 mph 87 % 0 in
03:42 39.4 °F 35.6 °F 28.4 in North 2.5 mph 5.8 mph 87 % 0 in
03:47 39.4 °F 35.6 °F 28.4 in NNE 3.4 mph 3.8 mph 87 % 0 in
03:52 39.2 °F 35.6 °F 28.3 in NNE 2.5 mph 5.4 mph 88 % 0 in
03:57 39.2 °F 35.6 °F 28.3 in Calm   5.4 mph 88 % 0 in
04:02 39.2 °F 35.6 °F 28.3 in NNE 2.7 mph 4.3 mph 88 % 0 in
04:07 39.2 °F 37.4 °F 28 in NE 2 mph 4.3 mph 89 % 0 in
04:12 39.2 °F 35.6 °F 28 in Calm   3.8 mph 88 % 0 in
04:17 39.2 °F 35.6 °F 28 in North 1.1 mph 3.6 mph 88 % 0 in
04:22 39 °F 37.4 °F 27.8 in Calm   3.6 mph 89 % 0 in
04:27 39 °F 37.4 °F 27.8 in NE 2.7 mph 3.8 mph 89 % 0 in
04:32 38.8 °F 35.6 °F 27.8 in NE 2.7 mph 4.3 mph 89 % 0 in
04:37 38.8 °F 35.6 °F 27.4 in Calm   4.3 mph 89 % 0 in
04:42 38.8 °F 35.6 °F 27.4 in North 4 mph 4.3 mph 89 % 0 in
04:47 38.8 °F 35.6 °F 27.4 in North 2.5 mph 4.3 mph 89 % 0 in
04:52 38.8 °F 35.6 °F 25 in Calm   4 mph 89 % 0 in
04:57 38.8 °F 35.6 °F 25 in Calm   4 mph 89 % 0 in
05:02 38.8 °F 35.6 °F 25 in Calm   4 mph 89 % 0 in
05:03 38.8 °F 35.6 °F 25 in Calm   4 mph 89 % 0 in
05:08 38.8 °F 35.6 °F 25 in Calm   4 mph 89 % 0 in
05:13 38.8 °F 35.6 °F 25 in Calm   4 mph 89 % 0 in
05:18 38.8 °F 35.6 °F 25 in Calm   4 mph 89 % 0 in
05:23 38.8 °F 35.6 °F 25 in Calm   4 mph 89 % 0 in
05:28 38.8 °F 35.6 °F 25 in Calm   4 mph 89 % 0 in
05:33 38.8 °F 35.6 °F 25 in Calm   4 mph 89 % 0 in
05:38 38.8 °F 35.6 °F 25 in Calm   4 mph 89 % 0 in
05:43 38.8 °F 35.6 °F 25 in Calm   4 mph 89 % 0 in
05:48 38.8 °F 35.6 °F 25 in Calm   4 mph 89 % 0 in
05:53 38.8 °F 35.6 °F 25 in Calm   4 mph 89 % 0 in
05:58 38.8 °F 35.6 °F 25 in Calm   4 mph 89 % 0 in
06:03 38.8 °F 35.6 °F 25 in Calm   4 mph 89 % 0 in
06:08 38.8 °F 35.6 °F 25 in Calm   4 mph 89 % 0 in
06:13 38.8 °F 35.6 °F 25 in Calm   4 mph 89 % 0 in
06:18 38.8 °F 35.6 °F 25 in Calm   4 mph 89 % 0 in
06:23 38.8 °F 35.6 °F 25 in Calm   4 mph 89 % 0 in
06:28 38.8 °F 35.6 °F 25 in Calm   4 mph 89 % 0 in
06:33 38.8 °F 35.6 °F 25 in Calm   4 mph 89 % 0 in
06:38 38.8 °F 35.6 °F 25 in Calm   4 mph 89 % 0 in
06:43 38.8 °F 35.6 °F 25 in Calm   4 mph 89 % 0 in
06:49 38.8 °F 35.6 °F 25 in Calm   4 mph 89 % 0 in
06:54 38.8 °F 35.6 °F 25 in Calm   4 mph 89 % 0 in
06:59 38.8 °F 35.6 °F 25 in Calm   4 mph 89 % 0 in
07:04 38.8 °F 35.6 °F 25 in Calm   4 mph 89 % 0 in
07:09 38.8 °F 35.6 °F 25 in Calm   4 mph 89 % 0 in
07:14 38.8 °F 35.6 °F 25 in Calm   4 mph 89 % 0 in
07:19 38.8 °F 35.6 °F 25 in Calm   4 mph 89 % 0 in
07:24 38.8 °F 35.6 °F 25 in Calm   4 mph 89 % 0 in
07:29 38.8 °F 35.6 °F 25 in Calm   4 mph 89 % 0 in
07:34 38.8 °F 35.6 °F 25 in Calm   4 mph 89 % 0 in
07:39 38.8 °F 35.6 °F 25 in Calm   4 mph 89 % 0 in
07:44 38.8 °F 35.6 °F 25 in Calm   4 mph 89 % 0 in
07:49 38.8 °F 35.6 °F 25 in Calm   4 mph 89 % 0 in
07:54 38.8 °F 35.6 °F 25 in Calm   4 mph 89 % 0 in
07:59 38.8 °F 35.6 °F 25 in Calm   4 mph 89 % 0 in
08:04 38.8 °F 35.6 °F 25 in Calm   4 mph 89 % 0 in
08:09 38.8 °F 35.6 °F 25 in Calm   4 mph 89 % 0 in
08:11 38.8 °F 35.6 °F 25 in Calm   4 mph 89 % 0 in
08:16 38.8 °F 35.6 °F 25 in Calm   4 mph 89 % 0 in
08:21 38.8 °F 35.6 °F 25 in Calm   4 mph 89 % 0 in
08:26 38.8 °F 35.6 °F 25 in Calm   4 mph 89 % 0 in
08:31 38.8 °F 35.6 °F 25 in Calm   4 mph 89 % 0 in
08:36 38.8 °F 35.6 °F 25 in Calm   4 mph 89 % 0 in
08:41 38.8 °F 35.6 °F 25 in Calm   4 mph 89 % 0 in
08:46 38.8 °F 35.6 °F 25 in Calm   4 mph 89 % 0 in
08:51 38.8 °F 35.6 °F 25 in Calm   4 mph 89 % 0 in
08:56 38.8 °F 35.6 °F 25 in Calm   4 mph 89 % 0 in
09:01 38.8 °F 35.6 °F 25 in Calm   4 mph 89 % 0 in
09:06 38.8 °F 35.6 °F 25 in Calm   4 mph 89 % 0 in
09:11 38.8 °F 35.6 °F 25 in Calm   4 mph 89 % 0 in
09:16 38.8 °F 35.6 °F 25 in Calm   4 mph 89 % 0 in
09:21 38.8 °F 35.6 °F 25 in Calm   4 mph 89 % 0 in
09:26 38.8 °F 35.6 °F 25 in Calm   4 mph 89 % 0 in
09:31 38.8 °F 35.6 °F 25 in Calm   4 mph 89 % 0 in
09:36 38.8 °F 35.6 °F 25 in Calm   4 mph 89 % 0 in
09:41 38.8 °F 35.6 °F 25 in Calm   4 mph 89 % 0 in
09:46 38.8 °F 35.6 °F 25 in Calm   4 mph 89 % 0 in
09:51 38.8 °F 35.6 °F 25 in Calm   4 mph 89 % 0 in
09:56 38.8 °F 35.6 °F 25 in Calm   4 mph 89 % 0 in
10:02 38.8 °F 35.6 °F 25 in Calm   4 mph 89 % 0 in
10:07 38.8 °F 35.6 °F 25 in Calm   4 mph 89 % 0 in
10:12 38.8 °F 35.6 °F 25 in Calm   4 mph 89 % 0 in
10:17 38.8 °F 35.6 °F 25 in Calm   4 mph 89 % 0 in
10:22 38.8 °F 35.6 °F 25 in Calm   4 mph 89 % 0 in
10:27 38.8 °F 35.6 °F 25 in Calm   4 mph 89 % 0 in
10:32 38.8 °F 35.6 °F 25 in Calm   4 mph 89 % 0 in
10:37 38.8 °F 35.6 °F 25 in Calm   4 mph 89 % 0 in
10:42 38.8 °F 35.6 °F 25 in Calm   4 mph 89 % 0 in
10:47 38.8 °F 35.6 °F 25 in Calm   4 mph 89 % 0 in
10:52 38.8 °F 35.6 °F 25 in Calm   4 mph 89 % 0 in
10:57 38.8 °F 35.6 °F 25 in Calm   4 mph 89 % 0 in
11:02 38.8 °F 35.6 °F 25 in Calm   4 mph 89 % 0 in
11:07 38.8 °F 35.6 °F 25 in Calm   4 mph 89 % 0 in
11:12 38.8 °F 35.6 °F 25 in Calm   4 mph 89 % 0 in
11:17 38.8 °F 35.6 °F 25 in Calm   4 mph 89 % 0 in
11:22 38.8 °F 35.6 °F 25 in Calm   4 mph 89 % 0 in
11:27 38.8 °F 35.6 °F 25 in Calm   4 mph 89 % 0 in
11:32 38.8 °F 35.6 °F 25 in Calm   4 mph 89 % 0 in
11:37 38.8 °F 35.6 °F 25 in Calm   4 mph 89 % 0 in
11:42 38.8 °F 35.6 °F 25 in Calm   4 mph 89 % 0 in
11:47 38.8 °F 35.6 °F 25 in Calm   4 mph 89 % 0 in
11:52 38.8 °F 35.6 °F 25 in Calm   4 mph 89 % 0 in
11:58 38.8 °F 35.6 °F 25 in Calm   4 mph 89 % 0 in
12:03 38.8 °F 35.6 °F 25 in Calm   4 mph 89 % 0 in
12:08 38.8 °F 35.6 °F 25 in Calm   4 mph 89 % 0 in
12:13 38.8 °F 35.6 °F 25 in Calm   4 mph 89 % 0 in
12:18 38.8 °F 35.6 °F 25 in Calm   4 mph 89 % 0 in
12:23 38.8 °F 35.6 °F 25 in Calm   4 mph 89 % 0 in
12:28 38.8 °F 35.6 °F 25 in Calm   4 mph 89 % 0 in
12:33 38.8 °F 35.6 °F 25 in Calm   4 mph 89 % 0 in
12:38 38.8 °F 35.6 °F 25 in Calm   4 mph 89 % 0 in
12:43 38.8 °F 35.6 °F 25 in Calm   4 mph 89 % 0 in
12:48 38.8 °F 35.6 °F 25 in Calm   4 mph 89 % 0 in
12:53 38.8 °F 35.6 °F 25 in Calm   4 mph 89 % 0 in
12:58 38.8 °F 35.6 °F 25 in Calm   4 mph 89 % 0 in
13:03 38.8 °F 35.6 °F 25 in Calm   4 mph 89 % 0 in
13:08 38.8 °F 35.6 °F 25 in Calm   4 mph 89 % 0 in
13:13 38.8 °F 35.6 °F 25 in Calm   4 mph 89 % 0 in
13:18 38.8 °F 35.6 °F 25 in Calm   4 mph 89 % 0 in
13:23 38.8 °F 35.6 °F 25 in Calm   4 mph 89 % 0 in
13:28 38.8 °F 35.6 °F 25 in Calm   4 mph 89 % 0 in
13:34 38.8 °F 35.6 °F 25 in Calm   4 mph 89 % 0 in
13:39 38.8 °F 35.6 °F 25 in Calm   4 mph 89 % 0 in
13:44 38.8 °F 35.6 °F 25 in Calm   4 mph 89 % 0 in
13:49 38.8 °F 35.6 °F 25 in Calm   4 mph 89 % 0 in
13:54 38.8 °F 35.6 °F 25 in Calm   4 mph 89 % 0 in
13:59 38.8 °F 35.6 °F 25 in Calm   4 mph 89 % 0 in
14:04 38.8 °F 35.6 °F 25 in Calm   4 mph 89 % 0 in
14:09 38.8 °F 35.6 °F 25 in Calm   4 mph 89 % 0 in
14:14 38.8 °F 35.6 °F 25 in Calm   4 mph 89 % 0 in
14:19 38.8 °F 35.6 °F 25 in Calm   4 mph 89 % 0 in
14:24 38.8 °F 35.6 °F 25 in Calm   4 mph 89 % 0 in
14:29 38.8 °F 35.6 °F 25 in Calm   4 mph 89 % 0 in
14:34 38.8 °F 35.6 °F 25 in Calm   4 mph 89 % 0 in
14:39 38.8 °F 35.6 °F 25 in Calm   4 mph 89 % 0 in
14:44 38.8 °F 35.6 °F 25 in Calm   4 mph 89 % 0 in
14:49 38.8 °F 35.6 °F 25 in Calm   4 mph 89 % 0 in
14:54 38.8 °F 35.6 °F 25 in Calm   4 mph 89 % 0 in
14:59 38.8 °F 35.6 °F 25 in Calm   4 mph 89 % 0 in
15:04 38.8 °F 35.6 °F 25 in Calm   4 mph 89 % 0 in
15:10 38.8 °F 35.6 °F 25 in Calm   4 mph 89 % 0 in
15:15 38.8 °F 35.6 °F 25 in Calm   4 mph 89 % 0 in
15:20 38.8 °F 35.6 °F 25 in Calm   4 mph 89 % 0 in
15:25 38.8 °F 35.6 °F 25 in Calm   4 mph 89 % 0 in
15:30 38.8 °F 35.6 °F 25 in Calm   4 mph 89 % 0 in
15:35 38.8 °F 35.6 °F 25 in Calm   4 mph 89 % 0 in
15:40 38.8 °F 35.6 °F 25 in Calm   4 mph 89 % 0 in
15:46 38.8 °F 35.6 °F 25 in Calm   4 mph 89 % 0 in
15:51 38.8 °F 35.6 °F 25 in Calm   4 mph 89 % 0 in
15:56 38.8 °F 35.6 °F 25 in Calm   4 mph 89 % 0 in
16:01 38.8 °F 35.6 °F 25 in Calm   4 mph 89 % 0 in
16:06 38.8 °F 35.6 °F 25 in Calm   4 mph 89 % 0 in
16:11 38.8 °F 35.6 °F 25 in Calm   4 mph 89 % 0 in
16:16 38.8 °F 35.6 °F 25 in Calm   4 mph 89 % 0 in
16:21 38.8 °F 35.6 °F 25 in Calm   4 mph 89 % 0 in
16:26 38.8 °F 35.6 °F 25 in Calm   4 mph 89 % 0 in
16:31 38.8 °F 35.6 °F 25 in Calm   4 mph 89 % 0 in
16:36 38.8 °F 35.6 °F 25 in Calm   4 mph 89 % 0 in
16:41 38.8 °F 35.6 °F 25 in Calm   4 mph 89 % 0 in
16:46 38.8 °F 35.6 °F 25 in Calm   4 mph 89 % 0 in
16:51 38.8 °F 35.6 °F 25 in Calm   4 mph 89 % 0 in
16:56 38.8 °F 35.6 °F 25 in Calm   4 mph 89 % 0 in
17:00 38.8 °F 35.6 °F 25 in Calm   4 mph 89 % 0 in
17:05 38.8 °F 35.6 °F 25 in Calm   4 mph 89 % 0 in
17:10 38.8 °F 35.6 °F 25 in Calm   4 mph 89 % 0 in
17:15 38.8 °F 35.6 °F 25 in Calm   4 mph 89 % 0 in
17:20 38.8 °F 35.6 °F 25 in Calm   4 mph 89 % 0 in
17:25 38.8 °F 35.6 °F 25 in Calm   4 mph 89 % 0 in
17:30 38.8 °F 35.6 °F 25 in Calm   4 mph 89 % 0 in
18:00 32 °F 35.6 °F 0 in Calm     0 % 0 in
18:05 32 °F 35.6 °F 0 in Calm     0 % 0 in
18:10 32 °F 35.6 °F 0 in Calm     0 % 0 in
18:15 32 °F 35.6 °F 0 in Calm     0 % 0 in
18:20 32 °F 35.6 °F 0 in Calm     0 % 0 in
18:25 32 °F 35.6 °F 0 in Calm     0 % 0 in
18:30 32 °F 35.6 °F 0 in Calm     0 % 0 in
18:35 32 °F 35.6 °F 0 in Calm     0 % 0 in
18:40 32 °F 35.6 °F 0 in Calm     0 % 0 in
18:45 32 °F 35.6 °F 0 in Calm     0 % 0 in
18:50 32 °F 35.6 °F 0 in Calm     0 % 0 in
18:51 32 °F 35.6 °F 0 in Calm     0 % 0 in
18:56 32 °F 35.6 °F 0 in Calm     0 % 0 in
19:01 32 °F 35.6 °F 0 in Calm     0 % 0 in
19:06 32 °F 35.6 °F 0 in Calm     0 % 0 in
19:11 32 °F 35.6 °F 0 in Calm     0 % 0 in
19:16 32 °F 35.6 °F 0 in Calm     0 % 0 in
19:21 32 °F 35.6 °F 0 in Calm     0 % 0 in
19:26 32 °F 35.6 °F 0 in Calm     0 % 0 in
19:31 32 °F 35.6 °F 0 in Calm     0 % 0 in
19:36 32 °F 35.6 °F 0 in Calm     0 % 0 in
19:41 32 °F 35.6 °F 0 in Calm     0 % 0 in
19:46 32 °F 35.6 °F 0 in Calm     0 % 0 in
19:51 32 °F 35.6 °F 0 in Calm     0 % 0 in
19:56 32 °F 35.6 °F 0 in Calm     0 % 0 in
20:01 32 °F 35.6 °F 0 in Calm     0 % 0 in
20:06 32 °F 35.6 °F 0 in Calm     0 % 0 in
20:11 32 °F 35.6 °F 0 in Calm     0 % 0 in
20:16 32 °F 35.6 °F 0 in Calm     0 % 0 in
20:21 32 °F 35.6 °F 0 in Calm     0 % 0 in
20:26 32 °F 35.6 °F 0 in Calm     0 % 0 in
20:31 32 °F 35.6 °F 0 in Calm     0 % 0 in
20:36 32 °F 35.6 °F 0 in Calm     0 % 0 in
20:41 32 °F 35.6 °F 0 in Calm     0 % 0 in
20:46 32 °F 35.6 °F 0 in Calm     0 % 0 in
20:51 32 °F 35.6 °F 0 in Calm     0 % 0 in
20:56 32 °F 35.6 °F 0 in Calm     0 % 0 in
21:01 32 °F 35.6 °F 0 in Calm     0 % 0 in
21:06 32 °F 35.6 °F 0 in Calm     0 % 0 in
21:11 32 °F 35.6 °F 0 in Calm     0 % 0 in
21:17 32 °F 35.6 °F 0 in Calm     0 % 0 in
21:22 32 °F 35.6 °F 0 in Calm     0 % 0 in
21:27 32 °F 35.6 °F 0 in Calm     0 % 0 in
21:32 32 °F 35.6 °F 0 in Calm     0 % 0 in
21:37 32 °F 35.6 °F 0 in Calm     0 % 0 in
21:42 32 °F 35.6 °F 0 in Calm     0 % 0 in
21:47 32 °F 35.6 °F 0 in Calm     0 % 0 in
21:52 32 °F 35.6 °F 0 in Calm     0 % 0 in
21:57 32 °F 35.6 °F 0 in Calm     0 % 0 in
22:02 32 °F 35.6 °F 0 in Calm     0 % 0 in
22:07 32 °F 35.6 °F 0 in Calm     0 % 0 in
22:12 32 °F 35.6 °F 0 in Calm     0 % 0 in
22:17 32 °F 35.6 °F 0 in Calm     0 % 0 in
22:22 32 °F 35.6 °F 0 in Calm     0 % 0 in
22:27 32 °F 35.6 °F 0 in Calm     0 % 0 in
22:32 32 °F 35.6 °F 0 in Calm     0 % 0 in
22:37 32 °F 35.6 °F 0 in Calm     0 % 0 in
22:42 32 °F 35.6 °F 0 in Calm     0 % 0 in
22:47 32 °F 35.6 °F 0 in Calm     0 % 0 in
22:52 32 °F 35.6 °F 0 in Calm     0 % 0 in
22:57 32 °F 35.6 °F 0 in Calm     0 % 0 in
23:02 32 °F 35.6 °F 0 in Calm     0 % 0 in
23:03 32 °F 35.6 °F 0 in Calm     0 % 0 in
23:08 32 °F 35.6 °F 0 in Calm     0 % 0 in
23:13 32 °F 35.6 °F 0 in Calm     0 % 0 in
23:18 32 °F 35.6 °F 0 in Calm     0 % 0 in
23:23 32 °F 35.6 °F 0 in Calm     0 % 0 in
23:28 32 °F 35.6 °F 0 in Calm     0 % 0 in
23:33 32 °F 35.6 °F 0 in Calm     0 % 0 in
23:38 32 °F 35.6 °F 0 in Calm     0 % 0 in
23:43 32 °F 35.6 °F 0 in Calm     0 % 0 in
23:48 32 °F 35.6 °F 0 in Calm     0 % 0 in
23:53 32 °F 35.6 °F 0 in Calm     0 % 0 in
23:58 32 °F 35.6 °F 0 in Calm     0 % 0 in
Le Gheer Warneton
Courtoisie de Weather Underground - 2.5 mb

Mise a jour : 17-12-17 07:11:12
Généré par Cumulus 1.9.4 (1099)